CW1575 Weather Reports


Display with metric or nautical units.
time (UTC)temp
F
wind
direction
speed
MPH
gust
MPH
rain 1hr
in
rain 24hr
in
rain mn
in
humidity
%
barometer
mb
20160827113504 49 318 0.0 0.0 0.00 0.00 0.00 85 1020.2
20160827113004 49 318 0.0 0.0 0.00 0.00 0.00 85 1020.1
20160827112504 49 318 0.0 0.0 0.00 0.00 0.00 85 1020.3
20160827112004 49 318 0.0 0.0 0.00 0.00 0.00 85 1020.2
20160827111504 49 319 0.0 0.0 0.00 0.00 0.00 85 1020.2
20160827110504 49 319 0.0 0.0 0.00 0.00 0.00 85 1020.2
20160827110003 49 319 0.0 0.0 0.00 0.00 0.00 85 1020.1
20160827105504 49 318 0.0 0.0 0.00 0.00 0.00 85 1020.1
20160827104504 50 318 0.0 0.0 0.00 0.00 0.00 85 1020.1
20160827103504 50 318 0.0 0.0 0.00 0.00 0.00 85 1020.1
20160827102504 50 319 0.0 0.0 0.00 0.00 0.00 85 1020.1
20160827101504 50 319 0.0 0.0 0.00 0.00 0.00 84 1020.1
20160827101004 51 319 0.0 0.0 0.00 0.00 0.00 84 1020.1
20160827100504 51 319 0.0 0.0 0.00 0.00 0.00 84 1020.2
20160827100004 51 319 0.0 0.0 0.00 0.00 0.00 84 1020.3
20160827095504 51 319 0.0 0.0 0.00 0.00 0.00 84 1020.2
20160827095004 51 319 0.0 0.0 0.00 0.00 0.00 84 1020.2
20160827094504 51 319 0.0 0.0 0.00 0.00 0.00 84 1020.3
20160827094004 51 319 0.0 0.0 0.00 0.00 0.00 84 1020.3
20160827093504 51 319 0.0 0.0 0.00 0.00 0.00 83 1020.2
20160827093004 52 319 0.0 0.0 0.00 0.00 0.00 83 1020.1
20160827092504 52 319 0.0 0.0 0.00 0.00 0.00 83 1020.2
20160827092004 52 319 0.0 0.0 0.00 0.00 0.00 84 1020.2
20160827090504 52 319 0.0 0.0 0.00 0.00 0.00 83 1020.2
20160827090004 52 319 0.0 0.0 0.00 0.00 0.00 83 1020.4
20160827085504 53 319 0.0 0.0 0.00 0.00 0.00 83 1020.4
20160827085004 53 319 0.0 0.0 0.00 0.00 0.00 84 1020.4
20160827084504 53 319 0.0 0.0 0.00 0.00 0.00 84 1020.4
20160827084004 53 319 0.0 0.0 0.00 0.00 0.00 84 1020.4
20160827083504 53 319 0.0 0.0 0.00 0.00 0.00 84 1020.5
20160827083004 53 319 0.0 0.0 0.00 0.00 0.00 84 1020.6
20160827082504 53 319 0.0 0.0 0.00 0.00 0.00 84 1020.6
20160827082004 53 319 0.0 0.0 0.00 0.00 0.00 84 1020.6
20160827081504 53 319 0.0 0.0 0.00 0.00 0.00 83 1020.6
20160827081004 54 319 0.0 0.0 0.00 0.00 0.00 83 1020.7
20160827080504 54 319 0.0 0.0 0.00 0.00 0.00 82 1020.5
20160827080004 54 319 0.0 0.0 0.00 0.00 0.00 82 1020.5
20160827075504 54 319 0.0 0.0 0.00 0.00 0.00 82 1020.5
20160827075005 54 319 0.0 0.0 0.00 0.00 0.00 81 1020.5
20160827074504 54 319 0.0 0.0 0.00 0.00 0.00 81 1020.6
20160827074004 54 319 0.0 0.0 0.00 0.00 0.00 81 1020.5
20160827073504 54 319 0.0 0.0 0.00 0.00 0.00 81 1020.4
20160827073004 55 319 0.0 0.0 0.00 0.00 0.00 80 1020.5
20160827072504 55 319 0.0 0.0 0.00 0.00 0.00 80 1020.5
20160827072005 55 319 0.0 0.0 0.00 0.00 0.00 80 1020.6
20160827071506 55 319 0.0 0.0 0.00 0.00 0.00 80 1020.6
20160827071004 55 319 0.0 0.0 0.00 0.00 0.00 78 1020.7
20160827070504 55 319 0.0 0.0 0.00 0.00 0.00 78 1020.7
20160827070004 56 319 0.0 0.0 0.00 0.00 0.00 78 1020.8
20160827065504 56 319 0.0 0.0 0.00 0.00 0.00 77 1020.7
20160827064504 56 319 0.0 0.0 0.00 0.00 0.00 76 1020.7
20160827064004 56 319 0.0 0.0 0.00 0.00 0.00 75 1020.8
20160827063504 57 319 0.0 0.0 0.00 0.00 0.00 75 1021.0
20160827063004 57 319 0.0 0.0 0.00 0.00 0.00 74 1021.0
20160827061504 58 319 0.0 0.0 0.00 0.00 0.00 73 1021.1
20160827061004 58 319 0.0 0.0 0.00 0.00 0.00 73 1021.1
20160827060504 58 319 0.0 0.0 0.00 0.00 0.00 72 1021.0
20160827055504 58 319 0.0 1.0 0.00 0.00 0.00 72 1020.9
20160827055004 58 318 1.0 3.0 0.00 0.00 0.00 72 1020.9
20160827054505 59 305 0.0 0.0 0.00 0.00 0.00 72 1020.9
20160827054003 59 316 0.0 0.0 0.00 0.00 0.00 71 1020.8
20160827052004 59 319 2.0 5.0 0.00 0.00 0.00 71 1020.8
20160827051503 60 307 2.0 3.0 0.00 0.00 0.00 70 1020.8
20160827050505 60 308 2.0 7.0 0.00 0.00 0.00 70 1020.7
20160827045004 61 311 2.0 3.0 0.00 0.00 0.00 70 1020.7
20160827044504 61 310 2.0 3.0 0.00 0.00 0.00 69 1020.5
20160827044003 61 308 2.0 3.0 0.00 0.00 0.00 69 1020.5
20160827043505 62 267 2.0 3.0 0.00 0.00 0.00 68 1020.5
20160827043004 62 178 1.0 1.0 0.00 0.00 0.00 68 1020.5
20160827041504 63 155 0.0 0.0 0.00 0.00 0.00 66 1020.5
20160827041004 63 155 0.0 0.0 0.00 0.00 0.00 66 1020.4
20160827040506 63 155 0.0 1.0 0.00 0.00 0.00 66 1020.6
20160827040004 63 155 1.0 2.0 0.00 0.00 0.00 65 1020.6
20160827035504 63 155 0.0 3.0 0.00 0.00 0.00 65 1020.4
20160827035004 63 182 1.0 3.0 0.00 0.00 0.00 65 1020.5
20160827034504 63 102 2.0 7.0 0.00 0.00 0.00 64 1020.5
20160827034004 63 119 1.0 3.0 0.00 0.00 0.00 64 1020.5
20160827033505 64 105 1.0 3.0 0.00 0.00 0.00 63 1020.6
20160827033005 64 119 2.0 3.0 0.00 0.00 0.00 63 1020.7
20160827032504 64 111 0.0 3.0 0.00 0.00 0.00 62 1020.8
20160827032005 64 108 0.0 9.0 0.00 0.00 0.00 62 1020.7
20160827031504 64 122 2.0 7.0 0.00 0.00 0.00 62 1020.9
20160827031005 63 113 2.0 7.0 0.00 0.00 0.00 61 1020.7
20160827030504 63 103 2.0 12.0 0.00 0.00 0.00 60 1020.6
20160827030004 63 116 2.0 12.0 0.00 0.00 0.00 58 1020.4
20160827025504 63 40 2.0 9.0 0.00 0.00 0.00 57 1020.2
20160827025004 63 26 6.0 10.0 0.00 0.00 0.00 56 1019.8
20160827024504 63 9 4.0 10.0 0.00 0.00 0.00 56 1019.8
20160827024004 63 42 2.0 5.0 0.00 0.00 0.00 59 1019.8
20160827023504 64 98 0.0 2.0 0.00 0.00 0.00 60 1019.6
20160827023004 64 98 0.0 0.0 0.00 0.00 0.00 59 1019.5
20160827022504 64 98 0.0 1.0 0.00 0.00 0.00 58 1019.5
20160827022004 65 98 0.0 1.0 0.00 0.00 0.00 57 1019.5
20160827021504 65 98 0.0 0.0 0.00 0.00 0.00 56 1019.3
20160827021005 65 98 0.0 0.0 0.00 0.00 0.00 56 1019.2
20160827020504 66 98 0.0 0.0 0.00 0.00 0.00 55 1019.2
20160827020004 66 98 0.0 0.0 0.00 0.00 0.00 54 1019.0
20160827015504 67 98 0.0 0.0 0.00 0.00 0.00 52 1019.0
20160827015004 67 98 0.0 0.0 0.00 0.00 0.00 52 1019.0
20160827014504 67 98 0.0 1.0 0.00 0.00 0.00 51 1019.0
20160827014004 68 98 0.0 1.0 0.00 0.00 0.00 52 1018.9
20160827013504 68 98 0.0 0.0 0.00 0.00 0.00 52 1019.0
20160827013004 69 98 0.0 0.0 0.00 0.00 0.00 50 1018.9
20160827012504 69 98 0.0 0.0 0.00 0.00 0.00 50 1018.9
20160827012004 70 98 0.0 1.0 0.00 0.00 0.00 49 1018.8
20160827011504 70 98 0.0 0.0 0.00 0.00 0.00 48 1018.8
20160827011004 71 98 0.0 0.0 0.00 0.00 0.00 48 1018.8
20160827010504 71 98 0.0 1.0 0.00 0.00 0.00 47 1018.9
20160827010004 71 98 1.0 2.0 0.00 0.00 0.00 45 1018.8
20160827005503 72 98 0.0 1.0 0.00 0.00 0.00 43 1018.5
20160827005004 72 98 0.0 1.0 0.00 0.00 0.00 41 1018.6
20160827004504 72 98 0.0 0.0 0.00 0.00 0.00 39 1018.5
20160827004003 73 98 0.0 0.0 0.00 0.00 0.00 39 1018.4
20160827003504 73 98 0.0 2.0 0.00 0.00 0.00 40 1018.7
20160827003004 73 98 1.0 2.0 0.00 0.00 0.00 42 1018.5
20160827002504 74 98 0.0 1.0 0.00 0.00 0.00 40 1018.5
20160827002004 74 98 0.0 0.0 0.00 0.00 0.00 38 1018.6
20160827001504 74 98 0.0 1.0 0.00 0.00 0.00 36 1018.6
20160827001005 75 98 0.0 1.0 0.00 0.00 0.00 37 1018.6
20160827000504 75 98 0.0 2.0 0.00 0.00 0.00 35 1018.8
20160827000004 75 98 0.0 3.0 0.00 0.00 0.00 36 1018.4
20160826235504 74 92 1.0 3.0 0.00 0.00 0.00 37 1018.3
20160826235005 74 318 0.0 1.0 0.00 0.00 0.00 39 1018.3
20160826234504 74 318 0.0 1.0 0.00 0.00 0.00 39 1018.3
20160826234007 73 318 0.0 2.0 0.00 0.00 0.00 38 1018.4
20160826233504 73 318 0.0 1.0 0.00 0.00 0.00 40 1018.4
20160826233004 73 318 0.0 2.0 0.00 0.00 0.00 40 1018.7
20160826232504 72 318 1.0 3.0 0.00 0.00 0.00 46 1018.8
20160826232004 72 319 2.0 3.0 0.00 0.00 0.00 49 1019.0
20160826231504 72 308 1.0 3.0 0.00 0.00 0.00 48 1019.0
20160826231003 72 338 3.0 10.0 0.00 0.00 0.00 51 1019.2
20160826230504 73 317 5.0 10.0 0.00 0.00 0.00 53 1019.4
20160826230004 74 295 2.0 6.0 0.00 0.00 0.00 53 1019.1
20160826225504 75 297 1.0 3.0 0.00 0.00 0.00 48 1019.1
20160826225004 76 255 1.0 3.0 0.00 0.00 0.00 44 1018.9
20160826224504 76 234 0.0 2.0 0.00 0.00 0.00 38 1018.8
20160826224004 77 234 0.0 2.0 0.00 0.00 0.00 40 1018.6
20160826223504 77 235 1.0 2.0 0.00 0.00 0.00 35 1018.4
20160826223004 78 234 0.0 1.0 0.00 0.00 0.00 33 1018.5
20160826222504 79 234 0.0 2.0 0.00 0.00 0.00 32 1018.7
20160826222004 79 234 2.0 3.0 0.00 0.00 0.00 32 1018.4
20160826221503 80 236 1.0 3.0 0.00 0.00 0.00 33 1018.3
20160826221004 80 271 0.0 1.0 0.00 0.00 0.00 30 1018.4
20160826220504 80 271 1.0 3.0 0.00 0.00 0.00 30 1018.6
20160826220005 80 321 1.0 3.0 0.00 0.00 0.00 30 1018.3
20160826215504 80 278 0.0 2.0 0.00 0.00 0.00 30 1018.5
20160826215004 80 154 1.0 3.0 0.00 0.00 0.00 33 1018.6
20160826214504 79 294 2.0 3.0 0.00 0.00 0.00 34 1018.5
20160826214004 79 176 2.0 7.0 0.00 0.00 0.00 32 1018.5
20160826213504 78 91 2.0 3.0 0.00 0.00 0.00 33 1018.8
20160826213004 78 158 2.0 5.0 0.00 0.00 0.00 36 1018.9
20160826212504 77 175 2.0 9.0 0.00 0.00 0.00 37 1018.5
20160826212005 77 88 3.0 12.0 0.00 0.00 0.00 33 1018.7
20160826211504 77 137 2.0 6.0 0.00 0.00 0.00 34 1018.9
20160826211004 76 174 2.0 7.0 0.00 0.00 0.00 37 1018.7
20160826210504 76 172 5.0 12.0 0.00 0.00 0.00 36 1018.7
20160826210004 76 159 3.0 7.0 0.00 0.00 0.00 37 1019.0
20160826205504 76 109 2.0 7.0 0.00 0.00 0.00 38 1019.0
20160826205004 76 123 2.0 6.0 0.00 0.00 0.00 38 1019.2
20160826204504 77 113 3.0 7.0 0.00 0.00 0.00 36 1019.3
20160826204004 77 114 3.0 7.0 0.00 0.00 0.00 37 1019.4
20160826203503 77 169 2.0 6.0 0.00 0.00 0.00 39 1019.3
20160826203004 77 130 2.0 9.0 0.00 0.00 0.00 37 1019.4
20160826202504 77 174 4.0 9.0 0.00 0.00 0.00 38 1019.5
20160826202004 77 118 3.0 7.0 0.00 0.00 0.00 37 1019.5
20160826201504 77 130 1.0 5.0 0.00 0.00 0.00 39 1019.6
20160826201003 77 140 3.0 6.0 0.00 0.00 0.00 41 1019.7
20160826200504 76 159 2.0 3.0 0.00 0.00 0.00 39 1019.6
20160826200004 77 175 1.0 3.0 0.00 0.00 0.00 39 1019.6
20160826195504 77 194 2.0 3.0 0.00 0.00 0.00 39 1019.8
20160826195003 77 139 0.0 2.0 0.00 0.00 0.00 40 1020.0
20160826194504 77 138 1.0 3.0 0.00 0.00 0.00 40 1020.1
20160826194004 77 203 2.0 6.0 0.00 0.00 0.00 38 1020.0
20160826193504 77 132 2.0 5.0 0.00 0.00 0.00 38 1020.2
20160826193004 77 4 2.0 3.0 0.00 0.00 0.00 38 1020.2
20160826192504 77 41 1.0 3.0 0.00 0.00 0.00 41 1020.4
20160826192004 77 156 1.0 6.0 0.00 0.00 0.00 43 1020.3
20160826191505 77 169 2.0 5.0 0.00 0.00 0.00 43 1020.4
20160826191004 76 176 1.0 3.0 0.00 0.00 0.00 42 1020.4
20160826190504 76 212 2.0 5.0 0.00 0.00 0.00 45 1020.5
20160826190004 76 202 2.0 3.0 0.00 0.00 0.00 46 1020.4
20160826185504 76 215 3.0 7.0 0.00 0.00 0.00 43 1020.7
20160826185004 75 206 2.0 3.0 0.00 0.00 0.00 46 1020.7
20160826184504 75 217 3.0 5.0 0.00 0.00 0.00 45 1020.9
20160826184005 75 224 3.0 5.0 0.00 0.00 0.00 46 1021.1
20160826183504 75 216 2.0 6.0 0.00 0.00 0.00 48 1021.0
20160826183004 74 223 2.0 6.0 0.00 0.00 0.00 47 1021.0
20160826182504 74 229 2.0 3.0 0.00 0.00 0.00 48 1021.2
20160826182004 73 172 0.0 3.0 0.00 0.00 0.00 48 1021.1
20160826181504 73 153 2.0 7.0 0.00 0.00 0.00 46 1021.2
20160826181004 73 129 2.0 8.0 0.00 0.00 0.00 48 1021.2
20160826180504 73 164 2.0 3.0 0.00 0.00 0.00 49 1021.4
20160826180004 72 148 0.0 3.0 0.00 0.00 0.00 53 1021.4
20160826175504 72 182 3.0 6.0 0.00 0.00 0.00 52 1021.5
20160826175004 71 208 2.0 5.0 0.00 0.00 0.00 52 1021.6
20160826174504 71 67 1.0 3.0 0.00 0.00 0.00 53 1021.6
20160826174005 70 188 2.0 3.0 0.00 0.00 0.00 54 1021.5
20160826173504 70 204 1.0 3.0 0.00 0.00 0.00 54 1021.5
20160826173004 69 207 2.0 3.0 0.00 0.00 0.00 55 1021.7
20160826172503 69 178 2.0 3.0 0.00 0.00 0.00 56 1021.8
20160826172004 69 206 2.0 3.0 0.00 0.00 0.00 57 1022.0
20160826171504 69 252 2.0 3.0 0.00 0.00 0.00 57 1022.1
20160826171004 70 235 3.0 6.0 0.00 0.00 0.00 55 1022.2
20160826170504 70 233 2.0 3.0 0.00 0.00 0.00 56 1022.4
20160826170004 70 276 1.0 3.0 0.00 0.00 0.00 57 1022.4
20160826165504 69 332 2.0 3.0 0.00 0.00 0.00 58 1022.5
20160826165004 69 274 1.0 3.0 0.00 0.00 0.00 58 1022.6
20160826164504 68 325 1.0 5.0 0.00 0.00 0.00 60 1022.6
20160826164004 68 354 1.0 3.0 0.00 0.00 0.00 62 1022.6
20160826163504 67 24 2.0 7.0 0.00 0.00 0.00 61 1022.7
20160826163004 66 21 2.0 5.0 0.00 0.00 0.00 63 1022.8
20160826162505 65 290 2.0 7.0 0.00 0.00 0.00 65 1022.5
20160826162004 65 275 2.0 5.0 0.00 0.00 0.00 66 1022.5
20160826161504 64 286 1.0 5.0 0.00 0.00 0.00 67 1022.7
20160826161003 63 297 1.0 3.0 0.00 0.00 0.00 69 1022.7
20160826160504 63 323 2.0 7.0 0.00 0.00 0.00 70 1022.7
20160826160004 62 291 2.0 3.0 0.00 0.00 0.00 72 1022.9
20160826155504 61 291 3.0 8.0 0.00 0.00 0.00 74 1022.9
20160826155004 60 336 2.0 7.0 0.00 0.00 0.00 76 1022.8
20160826154504 60 327 3.0 7.0 0.00 0.00 0.00 75 1022.8
20160826154004 60 9 2.0 3.0 0.00 0.00 0.00 76 1022.7
20160826153504 59 335 2.0 8.0 0.00 0.00 0.00 76 1022.7
20160826153004 59 298 2.0 9.0 0.00 0.00 0.00 77 1022.6
20160826152504 59 309 3.0 8.0 0.00 0.00 0.00 79 1022.5
20160826152004 58 5 3.0 5.0 0.00 0.00 0.00 80 1022.6
20160826151504 58 309 2.0 5.0 0.00 0.00 0.00 80 1022.6
20160826151004 57 284 3.0 9.0 0.00 0.00 0.00 81 1022.7
20160826150504 57 341 3.0 7.0 0.00 0.00 0.00 84 1022.5
20160826150004 56 313 3.0 6.0 0.00 0.00 0.00 84 1022.6
20160826145504 56 309 1.0 3.0 0.00 0.00 0.00 84 1022.6
20160826145004 56 338 1.0 3.0 0.00 0.00 0.00 84 1022.6
20160826144503 56 307 1.0 3.0 0.00 0.00 0.00 84 1022.7
20160826144004 56 325 1.0 3.0 0.00 0.00 0.00 85 1022.7
20160826143504 55 321 3.0 7.0 0.00 0.00 0.00 86 1022.8
20160826143004 55 327 3.0 5.0 0.00 0.00 0.00 87 1022.8
20160826142504 55 309 1.0 3.0 0.00 0.00 0.00 87 1022.8
20160826142004 54 274 1.0 3.0 0.00 0.00 0.00 87 1022.7
20160826141504 54 294 2.0 3.0 0.00 0.00 0.00 88 1022.7
20160826141004 54 274 0.0 3.0 0.00 0.00 0.00 89 1022.5
20160826140504 53 356 3.0 3.0 0.00 0.00 0.00 89 1022.4
20160826140004 53 311 1.0 3.0 0.00 0.00 0.00 89 1022.4
20160826135504 53 311 0.0 0.0 0.00 0.00 0.00 89 1022.3
20160826135004 53 311 0.0 0.0 0.00 0.00 0.00 88 1022.4
20160826134504 53 312 0.0 0.0 0.00 0.00 0.00 88 1022.2
20160826134004 52 312 0.0 0.0 0.00 0.00 0.00 88 1022.1
20160826133504 52 312 0.0 0.0 0.00 0.00 0.00 87 1022.1
20160826133004 53 312 0.0 0.0 0.00 0.00 0.00 87 1022.1
20160826132504 53 312 0.0 0.0 0.00 0.00 0.00 87 1022.1
20160826132004 53 312 0.0 0.0 0.00 0.00 0.00 86 1022.0
20160826131504 53 312 0.0 0.0 0.00 0.00 0.00 86 1022.0
20160826131003 53 312 0.0 0.0 0.00 0.00 0.00 86 1022.0
20160826130504 53 312 0.0 1.0 0.00 0.00 0.00 86 1022.0
20160826130004 53 313 0.0 1.0 0.00 0.00 0.00 86 1021.9
20160826125504 53 313 1.0 2.0 0.00 0.00 0.00 86 1021.9
20160826125004 53 313 0.0 0.0 0.00 0.00 0.00 86 1021.8
20160826124503 53 313 0.0 1.0 0.00 0.00 0.00 86 1021.9
20160826124004 53 313 1.0 2.0 0.00 0.00 0.00 86 1022.0
20160826123504 53 313 0.0 2.0 0.00 0.00 0.00 86 1022.1
20160826123003 53 312 0.0 0.0 0.00 0.00 0.00 86 1021.9
20160826122504 53 312 0.0 1.0 0.00 0.00 0.00 86 1021.9
20160826122004 53 312 1.0 2.0 0.00 0.00 0.00 86 1021.9
20160826121504 53 312 0.0 1.0 0.00 0.00 0.00 86 1021.7
20160826121004 53 313 0.0 3.0 0.00 0.00 0.00 86 1021.7
20160826120504 53 323 2.0 5.0 0.00 0.00 0.00 86 1021.8
20160826120004 53 311 2.0 5.0 0.00 0.00 0.00 86 1021.4
20160826115503 53 310 2.0 5.0 0.00 0.00 0.00 86 1021.4
20160826115004 53 323 1.0 2.0 0.00 0.00 0.00 86 1021.2
20160826114504 53 279 0.0 3.0 0.00 0.00 0.00 86 1021.2
20160826114004 53 292 0.0 2.0 0.00 0.00 0.00 86 1021.1